TimeCST,TemperatureF,Dew PointF,Humidity,Sea Level PressureIn,VisibilityMPH,Wind Direction,Wind SpeedMPH,Gust SpeedMPH,PrecipitationIn,Events,Conditions,WindDirDegrees,DateUTC
12:00 AM,55.4,53.6,94,29.93,3.0,South,5.8,-,0.01,Rain,Heavy Rain,170,2012-11-06 06:00:00
12:53 AM,55.9,54.0,93,29.93,9.0,WNW,9.2,-,0.01,Rain,Light Rain,300,2012-11-06 06:53:00
1:05 AM,55.4,53.6,94,29.92,8.0,Calm,Calm,-,0.00,Rain,Light Rain,0,2012-11-06 07:05:00
1:41 AM,55.4,53.6,94,29.91,10.0,Calm,Calm,-,0.00,,Overcast,0,2012-11-06 07:41:00
1:53 AM,55.0,53.1,93,29.91,9.0,Calm,Calm,-,0.00,,Mostly Cloudy,0,2012-11-06 07:53:00
2:53 AM,53.1,50.0,89,29.91,10.0,Calm,Calm,-,N/A,,Clear,0,2012-11-06 08:53:00
3:53 AM,51.1,48.9,92,29.93,10.0,NNW,3.5,-,N/A,,Clear,330,2012-11-06 09:53:00
4:37 AM,51.8,48.2,88,29.94,3.0,NNW,3.5,-,N/A,,Scattered Clouds,340,2012-11-06 10:37:00
4:39 AM,51.8,48.2,88,29.94,2.0,NNW,4.6,-,N/A,,Mostly Cloudy,330,2012-11-06 10:39:00
4:44 AM,51.8,50.0,94,29.94,0.8,NNW,4.6,-,N/A,,Mist,340,2012-11-06 10:44:00
4:47 AM,51.8,50.0,94,29.94,0.5,NNW,3.5,-,N/A,Fog,Fog,340,2012-11-06 10:47:00
4:53 AM,51.1,50.0,96,29.94,0.5,NNW,4.6,-,N/A,Fog,Fog,330,2012-11-06 10:53:00
5:02 AM,51.8,50.0,94,29.94,0.8,NNW,8.1,-,N/A,,Mist,330,2012-11-06 11:02:00
5:17 AM,51.8,50.0,94,29.94,1.2,North,6.9,-,N/A,,Overcast,350,2012-11-06 11:17:00
5:51 AM,50.0,48.2,94,29.95,1.5,NNW,9.2,-,N/A,,Overcast,330,2012-11-06 11:51:00
6:15 AM,50.0,48.2,94,29.96,3.0,North,5.8,-,N/A,,Overcast,350,2012-11-06 12:15:00
6:36 AM,51.8,48.2,88,29.98,10.0,NNW,9.2,-,N/A,,Overcast,330,2012-11-06 12:36:00
6:53 AM,50.0,48.0,93,29.99,10.0,NNW,10.4,-,N/A,,Overcast,340,2012-11-06 12:53:00
7:17 AM,51.8,48.2,88,30.00,10.0,NNW,9.2,-,N/A,,Overcast,340,2012-11-06 13:17:00
7:53 AM,51.1,48.0,89,29.99,10.0,NNW,9.2,-,N/A,,Overcast,340,2012-11-06 13:53:00
8:17 AM,51.8,48.2,88,30.00,10.0,NNW,6.9,-,N/A,,Overcast,330,2012-11-06 14:17:00
8:53 AM,53.1,48.0,83,30.00,10.0,NNW,9.2,-,N/A,,Overcast,330,2012-11-06 14:53:00
9:00 AM,51.8,46.4,82,30.00,10.0,North,5.8,-,N/A,,Overcast,360,2012-11-06 15:00:00
9:53 AM,55.9,46.9,72,29.99,10.0,North,6.9,-,N/A,,Scattered Clouds,350,2012-11-06 15:53:00
10:16 AM,57.2,46.4,67,29.99,10.0,NNW,6.9,-,N/A,,Mostly Cloudy,340,2012-11-06 16:16:00
10:36 AM,57.2,48.2,72,29.99,10.0,North,5.8,-,N/A,,Scattered Clouds,350,2012-11-06 16:36:00
10:53 AM,57.9,48.0,70,29.99,10.0,NW,9.2,-,N/A,,Scattered Clouds,320,2012-11-06 16:53:00
11:53 AM,62.1,46.9,58,29.96,10.0,NNW,8.1,-,N/A,,Partly Cloudy,330,2012-11-06 17:53:00
12:53 PM,63.0,46.0,54,29.93,10.0,North,6.9,-,N/A,,Scattered Clouds,350,2012-11-06 18:53:00
1:53 PM,63.0,46.0,54,29.92,10.0,NNW,9.2,-,N/A,,Mostly Cloudy,330,2012-11-06 19:53:00
2:53 PM,62.1,45.0,53,29.95,10.0,NNW,13.8,-,N/A,,Mostly Cloudy,330,2012-11-06 20:53:00
3:53 PM,59.0,45.0,60,29.97,10.0,NW,13.8,18.4,N/A,,Overcast,320,2012-11-06 21:53:00
4:53 PM,57.0,44.1,62,29.97,10.0,NNW,8.1,-,N/A,,Mostly Cloudy,330,2012-11-06 22:53:00
5:53 PM,53.1,45.0,74,29.97,10.0,NNW,3.5,-,N/A,,Clear,330,2012-11-06 23:53:00
6:53 PM,53.1,46.0,77,30.00,10.0,NW,4.6,-,N/A,,Mostly Cloudy,320,2012-11-07 00:53:00
7:53 PM,53.1,45.0,74,30.01,10.0,NW,6.9,-,N/A,,Overcast,310,2012-11-07 01:53:00
8:53 PM,50.0,45.0,83,30.02,10.0,WNW,4.6,-,N/A,,Mostly Cloudy,300,2012-11-07 02:53:00
9:53 PM,51.1,45.0,80,30.03,10.0,WNW,4.6,-,N/A,,Overcast,300,2012-11-07 03:53:00
10:53 PM,48.9,44.1,83,30.01,10.0,West,5.8,-,N/A,,Partly Cloudy,280,2012-11-07 04:53:00
11:53 PM,50.0,45.0,83,30.01,10.0,NW,5.8,-,N/A,,Overcast,310,2012-11-07 05:53:00